Weather History for KEST - September, 2012

Change the Weather History Date:

Monday, September 24, 2012

  Actual Average Record
Temperature  
Mean Temperature 56 °F 57 °F  
Max Temperature 79 °F 70 °F 85 °F (1956)
Min Temperature 33 °F 45 °F 28 °F (1989)
Degree Days  
Heating Degree Days 9 8  
Month to date heating degree days 118 115  
Since 1 July heating degree days 149 147  
Cooling Degree Days 0 1  
Month to date cooling degree days 50 44  
Year to date cooling degree days 886 584  
Growing Degree Days 6 (Base 50)    
Moisture  
Dew Point 33 °F    
Average Humidity 45    
Maximum Humidity 70    
Minimum Humidity 19    
Precipitation  
Precipitation 0.00 in 0.12 in 1.02 in (2005)
Month to date precipitation 0.21 2.67  
Sea Level Pressure  
Sea Level Pressure 29.97 in    
Wind  
Wind Speed 13 mph (SW)    
Max Wind Speed 30 mph    
Max Gust Speed 37 mph    
Visibility 10 miles    
Events      
T = Trace of Precipitation, MM = Missing Value Source: NWS Daily Summary

Daily Weather History Graph

Daily Weather History Graph

Search for Another Location

Airport or City:

Trip Planner

Search our weather history database for the weather conditions in past years. The results will help you decide how hot, cold, wet, or windy it might be!

Date:

Astronomy

Sep. 24, 2012 Rise Set
Actual Time 7:09 AM CDT 7:11 PM CDT
Civil Twilight 6:40 AM CDT 7:40 PM CDT
Nautical Twilight 6:07 AM CDT 8:13 PM CDT
Astronomical Twilight 5:33 AM CDT 8:47 PM CDT
Moon 4:05 PM CDT (9/24) 1:17 AM CDT (9/24)
Length of Visible Light 12h 59m
Length of Day
12h 02m
Waxing Gibbous, 71% of the Moon is Illuminated
Sep 24
Waxing Gibbous
Sep 29
Full
Oct 8
Last Quarter
Oct 15
New
Oct 21
First Quarter

Hourly Weather History & Observations

Time (CDT) Temp. Windchill Dew Point Humidity Pressure Visibility Wind Dir Wind Speed Gust Speed Precip Events Conditions
12:52 AM 39.9 °F 34.5 °F 25.0 °F 55% 30.20 in 10.0 mi South 8.1 mph - N/A   Clear
1:52 AM 36.0 °F 31.1 °F 26.1 °F 67% 30.19 in 10.0 mi South 5.8 mph - N/A   Clear
2:52 AM 35.1 °F 28.6 °F 26.1 °F 70% 30.17 in 10.0 mi South 8.1 mph - N/A   Clear
3:52 AM 37.0 °F 30.4 °F 26.1 °F 65% 30.14 in 10.0 mi South 9.2 mph - N/A   Clear
4:52 AM 39.0 °F 31.8 °F 27.0 °F 62% 30.11 in 10.0 mi SSW 11.5 mph - N/A   Clear
5:52 AM 39.0 °F 34.0 °F 27.0 °F 62% 30.09 in 10.0 mi South 6.9 mph - N/A   Clear
6:52 AM 37.0 °F 32.4 °F 28.0 °F 70% 30.07 in 10.0 mi South 5.8 mph - N/A   Clear
7:52 AM 39.0 °F 34.0 °F 30.0 °F 70% 30.07 in 10.0 mi South 6.9 mph - N/A   Clear
8:52 AM 54.0 °F - 34.0 °F 47% 30.05 in 10.0 mi SSW 15.0 mph 23.0 mph N/A   Clear
9:52 AM 60.1 °F - 34.0 °F 38% 30.04 in 10.0 mi SW 18.4 mph 25.3 mph N/A   Clear
10:52 AM 66.0 °F - 34.0 °F 30% 30.01 in 10.0 mi SW 24.2 mph 33.4 mph N/A   Clear
11:52 AM 71.1 °F - 33.1 °F 25% 29.97 in 10.0 mi SW 26.5 mph 34.5 mph N/A   Clear
12:52 PM 73.9 °F - 33.1 °F 22% 29.93 in 10.0 mi WSW 28.8 mph 34.5 mph N/A   Clear
1:52 PM 75.9 °F - 33.1 °F 21% 29.90 in 10.0 mi WSW 25.3 mph 31.1 mph N/A   Clear
2:52 PM 77.0 °F - 34.0 °F 21% 29.88 in 10.0 mi WSW 17.3 mph - N/A   Clear
3:52 PM 78.1 °F - 34.0 °F 20% 29.85 in 10.0 mi WSW 15.0 mph 25.3 mph N/A   Clear
4:52 PM 78.1 °F - 35.1 °F 21% 29.83 in 10.0 mi WSW 16.1 mph 23.0 mph N/A   Clear
5:52 PM 75.9 °F - 35.1 °F 23% 29.83 in 10.0 mi SW 16.1 mph 20.7 mph N/A   Clear
6:52 PM 71.1 °F - 36.0 °F 28% 29.82 in 10.0 mi SW 9.2 mph - N/A   Clear
7:52 PM 64.0 °F - 37.0 °F 37% 29.83 in 10.0 mi SSW 8.1 mph - N/A   Clear
8:52 PM 61.0 °F - 37.9 °F 42% 29.82 in 9.0 mi SSW 9.2 mph - N/A   Clear
9:52 PM 59.0 °F - 39.0 °F 48% 29.83 in 10.0 mi SW 8.1 mph - N/A   Clear
10:52 PM 57.9 °F - 39.0 °F 49% 29.83 in 10.0 mi WSW 10.4 mph - N/A   Clear
11:52 PM 54.0 °F - 39.9 °F 59% 29.83 in 10.0 mi WSW 8.1 mph - N/A   Clear